Temperature
8 8 8 8 8 8 8 7 7 7 7 8 8 9 9 9 9 9 9 9 9 9 9 8 8 8 8 8 7 7 6 6 6 6 5 5 4 4
8 8 8 8 8 7 7 7 7 7 7 8 8 9 8 8 8 8 8 8 8 8 8 8 8 8 8 7 7 7 6 6 6 5 5 4 4 4
8 8 8 8 7 7 7 7 7 7 6 7 8 8 8 8 8 8 8 8 8 8 8 8 7 7 7 7 7 6 6 6 5 5 4 4 4 3
8 8 8 7 7 7 7 7 7 7 6 7 7 7 7 7 7 7 7 7 7 7 7 7 7 7 7 6 6 6 5 5 5 4 4 4 3 3
7 7 7 7 7 7 7 7 7 6 6 6 7 7 7 7 7 7 7 7 7 7 7 7 6 6 6 6 6 5 5 5 4 4 4 3 3 2
7 7 7 7 7 7 7 7 6 6 6 6 6 6 6 6 6 6 6 6 6 6 6 6 6 6 5 5 5 5 4 4 4 3 3 3 2 2
7 7 7 7 7 7 7 6 6 6 6 6 6 6 6 6 6 6 6 6 6 6 6 6 6 5 5 5 4 4 4 3 3 3 2 2 2 1
7 7 7 7 7 7 7 6 6 6 6 6 5 5 6 6 6 5 5 5 5 5 5 5 5 5 5 4 4 3 3 3 2 2 2 2 1 1
6 6 6 7 7 6 6 6 6 6 6 6 5 5 5 5 5 5 5 5 5 5 4 4 4 4 4 4 3 3 2 2 2 2 1 1 1 0
6 6 6 6 6 6 6 6 6 6 5 5 5 5 5 5 5 5 4 4 4 4 4 3 4 4 4 3 3 2 2 1 1 1 1 1 0 0
5 5 6 6 6 6 5 5 5 5 5 5 5 4 4 4 4 4 4 3 3 3 3 3 3 3 3 3 2 2 1 1 1 0 0 0 0 -0
5 5 5 5 5 5 5 5 5 5 4 4 4 4 3 3 3 3 3 3 3 2 2 2 2 2 1 2 1 1 1 0 -0 -0 -0 -0 -0 -1
4 4 4 4 4 4 4 4 4 4 4 3 3 3 3 3 3 2 2 2 2 2 1 1 1 1 1 1 1 1 0 -0 -0 -0 -1 -1 -1 -1
3 3 3 3 4 4 3 3 3 3 3 3 3 2 2 2 2 2 2 2 1 1 1 1 0 0 -0 -0 -0 0 -0 -0 -1 -1 -1 -1 -1 -2
2 3 3 3 3 3 3 3 3 2 2 2 2 2 1 1 1 1 1 1 0 0 0 -0 -0 -0 -0 -1 -1 -1 -1 -1 -1 -2 -2 -2 -2 -2
2 2 2 2 2 2 2 2 2 2 2 1 1 1 1 1 0 0 0 -0 -0 -1 -1 -1 -1 -1 -1 -1 -1 -1 -2 -2 -2 -2 -2 -2 -3 -3
1 1 1 1 1 1 1 1 1 1 1 1 1 0 0 0 -0 -0 -1 -1 -1 -1 -1 -1 -1 -1 -2 -2 -2 -2 -2 -2 -2 -3 -3 -3 -3 -3
1 1 1 1 1 1 0 1 1 0 0 0 -0 -0 -0 -1 -1 -1 -1 -2 -2 -2 -2 -2 -2 -2 -2 -2 -2 -2 -3 -3 -3 -3 -3 -4 -3 -3
0 0 0 0 -0 -0 -0 -0 -0 -0 -0 -1 -1 -1 -1 -1 -1 -2 -2 -2 -3 -3 -3 -3 -3 -3 -3 -3 -3 -3 -4 -4 -4 -4 -4 -4 -4 -4
-1 -1 -1 -1 -1 -1 -1 -1 -1 -1 -1 -1 -1 -1 -1 -2 -2 -2 -3 -3 -3 -3 -4 -4 -4 -4 -4 -4 -4 -4 -4 -4 -4 -4 -4 -4 -4 -4
-1 -1 -1 -1 -1 -1 -1 -1 -1 -2 -2 -2 -2 -2 -2 -2 -3 -3 -3 -3 -4 -4 -4 -4 -4 -5 -5 -5 -5 -4 -4 -5 -5 -5 -5 -5 -5 -5
-2 -2 -2 -2 -2 -2 -2 -2 -2 -2 -2 -2 -2 -2 -3 -3 -3 -3 -4 -4 -4 -4 -4 -5 -5 -5 -5 -5 -5 -5 -5 -5 -5 -5 -5 -5 -5 -5
-2 -2 -2 -2 -2 -2 -2 -2 -3 -3 -3 -3 -3 -3 -3 -3 -4 -4 -4 -4 -5 -5 -5 -5 -5 -5 -5 -5 -5 -5 -5 -5 -5 -5 -5 -5 -5 -5
Wind_Speed
13 13 12 10 9 9 8 7 8 9 9 7 6 7 7 8 12 11 12 16 19 19 19 18 18 18 18 17 16 15 15 14 14 14 14 15 15 15
11 13 13 11 10 9 9 8 9 10 10 6 7 5 6 7 11 10 12 15 17 18 17 17 17 16 16 16 15 15 14 14 14 14 14 15 15 15
12 13 15 12 11 10 9 9 9 9 12 9 5 5 7 7 6 7 8 9 10 15 15 15 15 15 15 14 15 15 14 13 13 14 14 14 14 14
13 14 14 12 13 11 10 11 10 10 11 12 7 5 7 7 6 6 6 7 7 11 14 14 14 14 14 14 14 14 13 13 13 13 14 14 14 14
13 13 14 13 14 11 11 11 10 9 9 9 8 5 4 3 4 4 5 5 5 8 10 12 13 14 14 13 13 13 13 13 13 13 13 13 13 13
13 13 13 14 14 13 12 12 10 9 8 8 7 5 4 2 3 4 4 4 4 4 6 7 9 12 12 13 13 12 13 13 13 13 12 12 12 13
12 12 12 13 15 13 11 10 10 9 8 7 7 5 4 3 4 4 5 4 3 3 3 4 5 5 7 10 10 11 12 13 13 12 12 12 12 12
10 10 10 11 13 14 14 13 12 11 10 9 8 7 8 6 5 4 4 3 4 3 3 4 3 5 5 5 8 10 11 11 11 12 11 11 12 12
9 8 7 7 10 10 12 12 12 13 12 10 9 9 8 7 6 6 6 5 5 3 3 4 3 5 3 5 8 9 10 10 10 10 10 11 12 12
8 8 8 7 8 9 9 9 9 9 10 9 9 8 7 6 7 7 6 3 0 1 2 3 3 3 3 3 6 8 8 8 8 9 10 10 11 11
6 6 7 7 8 8 9 9 8 6 6 7 7 6 5 5 5 4 3 3 2 2 2 2 2 1 2 2 4 6 7 7 8 8 8 9 9 9
4 5 6 6 6 7 8 8 8 7 4 4 4 3 3 4 6 5 6 4 2 2 3 2 2 1 1 1 2 3 4 6 7 7 7 8 8 5
3 4 4 4 4 5 6 6 7 5 4 5 4 2 2 2 2 1 2 4 4 3 3 3 2 1 2 1 1 2 2 2 3 4 6 7 8 6
3 3 2 3 4 4 4 4 5 5 4 4 3 2 2 2 1 2 2 1 2 3 4 4 3 3 2 1 2 1 2 2 2 2 3 6 7 7
2 2 2 2 3 3 3 4 4 3 3 3 3 2 2 2 2 2 3 4 5 3 2 2 2 2 3 3 2 2 1 2 2 2 3 4 4 4
0 1 2 2 2 2 2 2 2 3 4 3 3 3 3 3 3 2 2 3 2 2 3 2 1 2 2 3 3 3 3 3 3 3 3 4 4 4
1 1 2 2 2 2 2 2 2 2 3 3 4 4 3 3 2 2 2 2 1 1 0 2 2 1 1 3 2 3 3 3 3 3 2 4 4 4
2 2 2 2 2 2 2 2 2 2 2 3 4 4 4 3 3 2 2 2 2 1 1 0 1 2 2 1 3 3 3 3 2 3 3 3 5 4
2 1 1 1 2 2 2 2 1 2 3 3 3 3 3 3 3 3 3 2 2 1 1 1 1 1 0 2 3 2 3 2 2 2 3 3 4 5
2 1 1 1 2 2 2 2 2 2 2 3 3 3 4 4 4 3 3 2 2 1 1 0 1 2 2 2 2 2 3 3 2 3 3 2 4 6
2 1 1 1 1 1 2 2 2 2 3 3 3 3 4 4 3 3 3 3 2 1 1 1 1 1 0 1 1 2 2 4 4 4 2 2 2 2
2 1 1 1 1 1 1 2 2 2 3 3 3 3 3 4 4 4 3 3 2 2 1 1 0 1 1 1 1 2 3 3 4 5 5 4 2 2
1 1 1 1 1 1 1 2 2 2 2 2 3 3 3 3 3 3 3 2 2 2 1 0 0 1 0 1 1 1 2 3 2 3 3 4 4 6
Wind_Direction
224 222 226 229 225 224 223 222 232 255 258 237 230 226 225 223 228 223 226 232 232 233 233 233 232 234 236 236 238 241 242 242 243 245 249 255 261 264
227 225 227 230 228 223 224 226 228 240 256 241 231 225 217 227 230 225 226 230 230 231 232 231 231 232 232 232 231 233 237 239 242 244 247 252 256 260
228 228 229 227 228 224 222 224 229 232 250 260 244 230 215 224 234 227 227 226 229 228 228 228 229 229 228 228 229 232 235 238 240 242 245 248 253 257
230 229 230 226 227 224 222 225 228 228 238 253 254 236 229 223 222 228 231 228 229 229 228 229 228 228 227 227 230 231 233 235 238 241 244 246 251 255
230 230 230 224 228 225 222 225 228 230 232 242 250 243 236 225 220 238 235 232 232 231 230 232 232 230 228 227 228 229 230 232 235 239 242 245 249 253
233 231 231 227 228 222 222 223 224 226 229 236 245 243 237 221 200 229 241 228 232 226 227 232 233 231 230 230 229 228 228 229 232 238 240 243 247 252
237 234 231 229 230 223 221 217 215 222 225 230 238 238 229 211 218 217 232 231 238 222 227 228 225 224 225 229 229 227 227 229 232 236 242 245 246 249
241 238 234 228 230 222 219 214 210 215 220 224 233 235 235 229 220 211 218 217 245 209 209 236 211 225 222 218 223 225 228 232 234 238 241 245 248 250
239 238 239 235 227 218 217 215 215 217 216 219 227 232 233 228 212 210 215 217 229 198 188 228 214 230 228 229 226 224 226 232 237 240 244 249 251 252
239 236 232 234 225 213 210 211 216 220 222 221 225 228 227 218 210 209 213 207 207 201 178 221 224 235 245 234 226 221 224 230 238 244 248 252 253 254
246 241 235 234 223 204 201 204 210 219 215 207 212 212 206 198 183 166 170 179 215 219 202 208 220 238 249 238 232 230 233 237 242 247 250 252 255 259
250 245 244 233 218 196 201 202 209 211 190 193 202 209 205 185 174 189 191 189 183 215 199 183 189 169 255 255 232 235 236 241 246 251 256 259 263 258
254 250 242 215 200 194 201 206 207 192 173 174 172 167 145 142 153 163 181 186 185 211 180 159 175 187 188 246 265 236 220 234 247 256 263 269 267 258
253 245 219 190 185 191 198 190 178 171 158 156 159 164 157 145 119 104 97 91 125 174 175 169 181 185 179 204 249 257 251 230 223 244 258 273 269 264
239 201 179 164 165 181 179 165 161 161 154 162 168 172 158 144 128 109 81 76 63 60 104 150 157 170 179 200 217 229 261 253 227 238 254 256 253 247
208 138 127 117 126 132 141 147 153 154 155 162 151 140 126 129 133 128 125 117 88 42 32 40 106 163 195 206 207 230 228 230 244 255 263 266 254 238
83 98 95 96 100 101 100 104 111 124 132 132 137 136 132 130 127 115 118 112 121 163 48 24 28 26 215 195 206 224 233 244 238 248 260 269 260 247
77 99 109 116 127 127 126 116 115 125 129 132 134 138 140 141 130 116 115 124 134 150 158 129 45 19 13 327 221 223 240 242 256 248 232 254 268 261
77 92 112 133 133 133 138 143 151 140 132 132 137 143 144 140 135 134 137 135 139 152 174 160 142 127 77 289 298 221 214 254 267 258 234 238 256 267
59 70 87 121 137 145 149 144 138 135 134 139 144 149 148 144 145 148 152 155 160 159 162 150 163 180 197 228 260 276 253 237 244 260 269 272 271 276
30 35 51 85 115 137 145 148 150 155 154 151 150 152 151 146 148 153 156 154 147 160 183 246 259 326 20 75 313 296 281 270 258 247 246 264 285 285
21 30 33 55 92 121 138 146 139 138 146 147 151 152 152 151 156 159 162 169 182 187 202 238 336 54 81 156 255 286 305 315 313 298 260 237 234 239
355 7 15 48 86 117 127 135 143 147 146 151 154 152 150 152 157 161 166 171 172 166 148 117 33 44 320 216 240 275 293 308 326 333 314 311 300 287
Height
1406 1408 1410 1411 1414 1415 1417 1419 1420 1417 1415 1416 1417 1419 1420 1421 1422 1423 1424 1424 1425 1426 1428 1429 1430 1431 1432 1433 1434 1435 1437 1437 1438 1439 1439 1439 1439 1439
1398 1399 1401 1403 1405 1407 1408 1410 1411 1411 1408 1407 1409 1411 1412 1413 1414 1415 1415 1416 1417 1418 1419 1420 1422 1422 1424 1425 1426 1427 1428 1429 1430 1431 1431 1431 1432 1432
1389 1390 1392 1394 1396 1398 1400 1401 1402 1403 1401 1400 1402 1403 1404 1405 1406 1407 1407 1408 1409 1410 1411 1412 1413 1414 1415 1416 1418 1419 1420 1421 1422 1423 1423 1424 1424 1424
1380 1382 1383 1385 1387 1389 1391 1392 1393 1394 1394 1392 1393 1395 1395 1396 1398 1398 1399 1400 1401 1402 1403 1405 1405 1406 1407 1408 1409 1411 1412 1413 1414 1415 1416 1416 1416 1417
1372 1373 1375 1377 1378 1380 1382 1383 1385 1386 1387 1386 1386 1387 1388 1389 1390 1391 1392 1392 1394 1395 1396 1397 1398 1399 1399 1401 1402 1403 1404 1405 1406 1407 1408 1408 1409 1409
1363 1365 1367 1368 1369 1371 1373 1375 1377 1378 1379 1379 1379 1380 1380 1381 1382 1383 1384 1385 1386 1388 1388 1389 1390 1391 1392 1393 1394 1395 1396 1397 1398 1399 1400 1400 1401 1401
1355 1356 1358 1360 1361 1363 1365 1366 1368 1370 1370 1371 1372 1372 1373 1374 1375 1376 1377 1378 1379 1380 1381 1382 1383 1384 1385 1386 1387 1388 1389 1390 1391 1392 1393 1393 1393 1394
1346 1348 1349 1351 1353 1355 1357 1358 1360 1361 1362 1363 1364 1365 1365 1367 1368 1369 1370 1371 1371 1373 1374 1375 1376 1377 1378 1379 1380 1381 1382 1383 1384 1385 1385 1386 1386 1386
1339 1340 1341 1342 1344 1346 1348 1350 1351 1353 1354 1356 1356 1357 1359 1360 1362 1363 1364 1364 1364 1366 1367 1367 1369 1370 1371 1372 1373 1374 1375 1376 1377 1378 1378 1379 1379 1379
1332 1333 1334 1335 1336 1338 1340 1341 1343 1344 1346 1348 1349 1350 1353 1354 1355 1357 1357 1358 1358 1360 1361 1362 1362 1363 1365 1366 1367 1368 1369 1370 1370 1371 1372 1372 1372 1373
1325 1326 1327 1327 1329 1331 1332 1334 1335 1337 1339 1341 1342 1344 1346 1347 1349 1350 1350 1351 1351 1353 1355 1356 1356 1357 1358 1359 1361 1362 1363 1364 1364 1365 1365 1365 1366 1366
1319 1319 1321 1321 1322 1323 1326 1327 1328 1329 1332 1334 1335 1337 1339 1340 1342 1343 1344 1345 1345 1347 1348 1350 1350 1351 1352 1353 1355 1356 1357 1358 1358 1359 1359 1359 1359 1359
1313 1313 1315 1315 1316 1318 1320 1321 1322 1325 1326 1328 1329 1331 1333 1334 1335 1337 1338 1340 1340 1341 1343 1345 1345 1347 1347 1348 1349 1350 1351 1352 1352 1353 1353 1353 1353 1353
1308 1308 1309 1311 1311 1314 1315 1316 1318 1320 1321 1323 1324 1325 1327 1329 1330 1332 1333 1334 1336 1337 1338 1340 1341 1342 1342 1343 1343 1344 1346 1346 1347 1347 1347 1347 1347 1347
1303 1303 1305 1306 1307 1309 1311 1312 1314 1316 1317 1318 1319 1321 1323 1325 1326 1327 1328 1330 1331 1332 1334 1335 1336 1337 1338 1338 1339 1339 1340 1340 1341 1341 1342 1341 1341 1340
1299 1299 1301 1302 1303 1305 1307 1308 1310 1312 1313 1315 1316 1318 1320 1321 1322 1324 1325 1326 1327 1329 1330 1332 1333 1333 1334 1334 1335 1335 1336 1336 1336 1337 1336 1336 1336 1335
1296 1296 1297 1298 1299 1301 1303 1305 1307 1308 1310 1311 1313 1314 1316 1318 1319 1321 1322 1323 1323 1325 1326 1328 1329 1330 1330 1331 1331 1331 1332 1332 1332 1332 1331 1330 1331 1331
1293 1293 1294 1295 1297 1299 1301 1302 1304 1306 1307 1309 1310 1312 1313 1314 1316 1318 1319 1320 1321 1322 1323 1324 1325 1326 1327 1327 1328 1328 1328 1328 1328 1327 1327 1326 1326 1326
1291 1291 1292 1294 1295 1297 1299 1300 1301 1303 1305 1307 1308 1309 1311 1312 1314 1315 1317 1318 1319 1320 1320 1321 1322 1323 1323 1323 1324 1325 1324 1324 1324 1323 1323 1323 1322 1322
1290 1290 1292 1293 1294 1295 1297 1298 1300 1301 1303 1305 1306 1308 1309 1310 1312 1313 1314 1315 1317 1317 1318 1319 1319 1320 1320 1321 1321 1321 1322 1321 1320 1320 1319 1319 1319 1320
1289 1290 1291 1292 1293 1294 1295 1296 1298 1299 1301 1302 1304 1305 1307 1308 1310 1311 1312 1313 1315 1315 1316 1316 1317 1319 1319 1319 1318 1318 1319 1319 1318 1317 1316 1316 1316 1315
1289 1290 1290 1291 1291 1292 1293 1295 1296 1297 1299 1300 1302 1303 1305 1306 1307 1309 1310 1312 1313 1313 1314 1315 1316 1317 1317 1317 1316 1316 1316 1317 1317 1316 1316 1315 1314 1313
1289 1289 1289 1290 1291 1291 1292 1293 1294 1296 1297 1299 1300 1301 1303 1304 1306 1307 1308 1310 1311 1312 1312 1313 1314 1315 1315 1315 1314 1314 1314 1314 1314 1314 1314 1314 1314 1314